Regional Weather Roundup
Issued by NWS

Home | Current Version | Previous Version | Text Only | Print | Product List | Glossary On
Versions: 1 2 3 4 5 6 7 8 9 10 11 12 13 14 15 16 17 18 19 20 21 22 23 24 25 26 27 28 29 30 31 32 33 34 35 36 37 38 39 40 41 42 43 44 45 46 47 48 49 50
000
ASUS43 KTOP 291108
RWRKS

WEATHER ROUNDUP FOR KANSAS
NATIONAL WEATHER SERVICE GOODLAND KS
600 AM CDT SUN MAR 29 2015

NOTE:  "FAIR" INDICATES FEW OR NO CLOUDS BELOW 12,000 FEET WITH NO
SIGNIFICANT WEATHER AND/OR OBSTRUCTIONS TO VISIBILITY.

KSZ001>006-013>018-027>032-041>047-291200-
NORTHWEST KANSAS

CITY           SKY/WX    TMP DP  RH WIND       PRES   REMARKS
GOODLAND       PTCLDY    53  35  50 N20G31    30.02R
HAYS           PTCLDY    54  39  58 W7        29.87R
HILL CITY      CLEAR     58  36  43 N18       29.92R
RUSSELL        PTCLDY    56  45  66 SW8       29.86F
$$

KSZ061>065-074>080-084>089-291200-
SOUTHWEST KANSAS

CITY           SKY/WX    TMP DP  RH WIND       PRES   REMARKS
DODGE CITY     CLEAR     53  42  66 SW15      29.89R
ELKHART          N/A     57  27  31 NW12        N/A
GARDEN CITY    CLEAR     47  34  60 W6        29.90R
GREAT BEND     MOCLDY    55  43  62 W16       29.90R
LIBERAL        CLEAR     52  34  50 SW14      29.91R
PRATT          MOCLDY    46  43  87 S13       29.86S
$$

KSZ066>073-081>083-090>101-291200-
SOUTHEAST KANSAS

CITY           SKY/WX    TMP DP  RH WIND       PRES   REMARKS
CHANUTE        CLEAR     42  38  85 S13       29.93F
COFFEYVILLE    CLEAR     43  37  79 S13       29.95F
HUTCHINSON     PTCLDY    50  43  77 S17       29.85F
MEDICINE LODGE   N/A     47  42  83 CALM      29.88R
NEWTON         PTCLDY    48  39  71 S25G31    29.85F
PARSONS        CLEAR     43  38  82 S8        29.96F
WICHITA INTL   PTCLDY    48  42  80 S18       29.87F
WICHITA JABRA  CLEAR     46  41  82 S13       29.87F
WICHITA MCCONL CLEAR     48  42  80 S18       29.87F
WINFIELD       CLEAR     46  41  82 SE14      29.90F
$$

KSZ007>012-019>026-033>040-048>060-102>105-291200-
NORTHEAST KANSAS

CITY           SKY/WX    TMP DP  RH WIND       PRES   REMARKS
CONCORDIA      MOCLDY    47  40  76 S9        29.85F
EMPORIA        CLEAR     43  39  86 S18G24    29.87F
LAWRENCE       PTCLDY    40  34  79 SE14      29.91F WCI  32
MANHATTAN      PTCLDY    48  41  76 W5        29.91R
MARYSVILLE     MOCLDY    43  37  81 S6        29.87F
OLATHE IND     PTCLDY    38  33  82 SE18      29.92F WCI  28
OLATHE EXE     PTCLDY    37  33  85 S20       29.93F WCI  27
SALINA         MOCLDY    53  42  66 VRB5      29.92R
TOPEKA BILLARD MOCLDY    44  37  76 SE10      29.92S
TOPEKA FORBES  PTCLDY    43  36  76 S16       29.88F
$$


USA.gov is the U.S. government's official web portal to all federal, state and local government web resources and services.